TimeEDT,TemperatureF,Dew PointF,Humidity,Sea Level PressureIn,VisibilityMPH,Wind Direction,Wind SpeedMPH,Gust SpeedMPH,PrecipitationIn,Events,Conditions,WindDirDegrees,DateUTC
12:15 AM,72.0,67.3,85,29.82,10.0,Calm,Calm,-,N/A,,Clear,0,2013-09-13 04:15:00
12:35 AM,70.9,67.3,88,29.81,7.0,Calm,Calm,-,N/A,,Clear,0,2013-09-13 04:35:00
12:55 AM,70.7,67.3,89,29.80,7.0,Calm,Calm,-,N/A,,Clear,0,2013-09-13 04:55:00
1:15 AM,70.7,67.5,89,29.80,7.0,Calm,Calm,-,N/A,,Clear,0,2013-09-13 05:15:00
1:35 AM,70.7,67.6,90,29.80,7.0,Calm,Calm,-,N/A,,Clear,0,2013-09-13 05:35:00
1:55 AM,70.2,67.3,91,29.80,7.0,Calm,Calm,-,N/A,,Clear,0,2013-09-13 05:55:00
2:15 AM,69.6,67.1,92,29.80,5.0,SW,4.6,-,N/A,,Scattered Clouds,230,2013-09-13 06:15:00
2:35 AM,70.3,67.1,89,29.79,7.0,WSW,3.5,-,N/A,,Scattered Clouds,240,2013-09-13 06:35:00
2:55 AM,70.0,66.6,89,29.79,7.0,West,3.5,-,N/A,,Scattered Clouds,260,2013-09-13 06:55:00
3:15 AM,70.3,66.2,87,29.78,10.0,Calm,Calm,-,N/A,,Clear,0,2013-09-13 07:15:00
3:35 AM,71.1,65.5,82,29.77,10.0,West,3.5,-,N/A,,Clear,280,2013-09-13 07:35:00
3:55 AM,71.6,64.4,78,29.77,10.0,Calm,Calm,-,N/A,,Scattered Clouds,0,2013-09-13 07:55:00
4:15 AM,70.7,64.8,81,29.77,10.0,Calm,Calm,-,N/A,,Scattered Clouds,0,2013-09-13 08:15:00
4:35 AM,70.2,64.8,83,29.77,10.0,Calm,Calm,-,N/A,,Scattered Clouds,0,2013-09-13 08:35:00
4:55 AM,70.7,63.9,79,29.77,10.0,Calm,Calm,-,N/A,,Scattered Clouds,0,2013-09-13 08:55:00
5:15 AM,71.2,63.5,76,29.77,10.0,NW,3.5,-,N/A,,Mostly Cloudy,310,2013-09-13 09:15:00
5:35 AM,70.9,63.3,77,29.77,10.0,Calm,Calm,-,N/A,,Mostly Cloudy,0,2013-09-13 09:35:00
5:55 AM,70.5,63.1,77,29.77,10.0,NW,3.5,-,N/A,,Mostly Cloudy,320,2013-09-13 09:55:00
6:15 AM,71.1,62.6,75,29.78,10.0,WNW,5.8,-,N/A,,Overcast,300,2013-09-13 10:15:00
6:35 AM,71.2,62.1,73,29.78,10.0,WNW,5.8,-,N/A,,Mostly Cloudy,290,2013-09-13 10:35:00
6:55 AM,71.2,61.9,72,29.79,10.0,NW,4.6,-,N/A,,Mostly Cloudy,310,2013-09-13 10:55:00
7:15 AM,71.6,61.7,71,29.79,10.0,WNW,4.6,-,N/A,,Overcast,300,2013-09-13 11:15:00
7:35 AM,71.1,61.7,72,29.80,10.0,WNW,5.8,-,N/A,,Mostly Cloudy,290,2013-09-13 11:35:00
7:55 AM,70.7,62.2,75,29.81,10.0,West,3.5,-,N/A,,Mostly Cloudy,280,2013-09-13 11:55:00
8:15 AM,70.5,62.6,76,29.80,10.0,West,3.5,-,N/A,,Scattered Clouds,270,2013-09-13 12:15:00
8:35 AM,71.6,62.8,74,29.81,10.0,West,3.5,-,N/A,,Scattered Clouds,280,2013-09-13 12:35:00
8:55 AM,72.7,62.1,69,29.81,10.0,West,5.8,-,N/A,,Scattered Clouds,280,2013-09-13 12:55:00
9:15 AM,74.7,61.9,64,29.82,10.0,WNW,4.6,-,N/A,,Clear,290,2013-09-13 13:15:00
9:35 AM,76.3,61.0,59,29.82,10.0,WNW,5.8,-,N/A,,Clear,300,2013-09-13 13:35:00
9:55 AM,77.2,60.1,55,29.82,10.0,NW,5.8,-,N/A,,Clear,320,2013-09-13 13:55:00
10:15 AM,78.3,58.8,51,29.82,10.0,NNW,10.4,17.3,N/A,,Clear,340,2013-09-13 14:15:00
10:35 AM,79.5,58.8,49,29.82,10.0,NNW,11.5,16.1,N/A,,Clear,330,2013-09-13 14:35:00
10:55 AM,79.5,58.8,49,29.82,10.0,NW,5.8,-,N/A,,Clear,320,2013-09-13 14:55:00
11:15 AM,80.2,57.4,45,29.82,10.0,NNW,10.4,-,N/A,,Clear,340,2013-09-13 15:15:00
11:35 AM,81.0,56.7,43,29.82,10.0,North,8.1,16.1,N/A,,Clear,350,2013-09-13 15:35:00
11:55 AM,81.7,56.3,42,29.82,10.0,North,8.1,-,N/A,,Clear,350,2013-09-13 15:55:00
12:15 PM,80.8,54.7,40,29.81,10.0,WNW,6.9,16.1,N/A,,Scattered Clouds,300,2013-09-13 16:15:00
12:35 PM,81.3,55.9,42,29.81,10.0,North,6.9,17.3,N/A,,Mostly Cloudy,350,2013-09-13 16:35:00
12:55 PM,82.6,55.9,40,29.81,10.0,NW,5.8,-,N/A,,Scattered Clouds,310,2013-09-13 16:55:00
1:15 PM,81.5,54.3,39,29.80,10.0,WNW,8.1,-,N/A,,Scattered Clouds,290,2013-09-13 17:15:00
1:35 PM,80.2,55.8,43,29.80,10.0,North,6.9,-,N/A,,Mostly Cloudy,350,2013-09-13 17:35:00
1:55 PM,81.1,54.3,39,29.80,10.0,NW,3.5,-,N/A,,Mostly Cloudy,320,2013-09-13 17:55:00
2:15 PM,84.0,54.1,36,29.79,10.0,NNW,10.4,-,N/A,,Mostly Cloudy,340,2013-09-13 18:15:00
2:35 PM,83.5,51.6,33,29.79,10.0,West,9.2,16.1,N/A,,Scattered Clouds,270,2013-09-13 18:35:00
2:55 PM,82.2,50.4,33,29.78,10.0,NW,10.4,-,N/A,,Scattered Clouds,310,2013-09-13 18:55:00
3:15 PM,83.5,49.8,31,29.78,10.0,NW,11.5,-,N/A,,Scattered Clouds,310,2013-09-13 19:15:00
3:35 PM,81.0,51.3,36,29.78,10.0,WNW,6.9,-,N/A,,Scattered Clouds,290,2013-09-13 19:35:00
3:55 PM,82.0,49.3,32,29.78,10.0,NW,9.2,18.4,N/A,,Mostly Cloudy,310,2013-09-13 19:55:00
4:15 PM,81.3,47.3,30,29.78,10.0,West,6.9,-,N/A,,Mostly Cloudy,280,2013-09-13 20:15:00
4:35 PM,82.0,46.6,29,29.79,10.0,WNW,5.8,-,N/A,,Scattered Clouds,290,2013-09-13 20:35:00
4:55 PM,80.1,46.9,31,29.79,10.0,WNW,4.6,-,N/A,,Scattered Clouds,290,2013-09-13 20:55:00
5:15 PM,79.7,47.5,32,29.79,10.0,WNW,4.6,-,N/A,,Scattered Clouds,300,2013-09-13 21:15:00
5:35 PM,79.9,47.7,32,29.79,10.0,NW,5.8,-,N/A,,Scattered Clouds,320,2013-09-13 21:35:00
5:55 PM,79.0,48.4,34,29.80,10.0,WNW,3.5,-,N/A,,Mostly Cloudy,300,2013-09-13 21:55:00
6:15 PM,78.8,48.2,34,29.80,10.0,WNW,4.6,-,N/A,,Mostly Cloudy,290,2013-09-13 22:15:00
6:35 PM,78.6,49.3,36,29.80,10.0,NW,3.5,-,N/A,,Overcast,310,2013-09-13 22:35:00
6:55 PM,77.9,49.3,37,29.81,10.0,WNW,3.5,-,N/A,,Overcast,300,2013-09-13 22:55:00
7:15 PM,76.3,52.0,43,29.82,10.0,North,8.1,-,N/A,,Mostly Cloudy,350,2013-09-13 23:15:00
7:35 PM,73.8,54.9,52,29.83,10.0,North,3.5,-,N/A,,Mostly Cloudy,360,2013-09-13 23:35:00
7:55 PM,72.7,54.7,53,29.84,10.0,North,3.5,-,N/A,,Scattered Clouds,10,2013-09-13 23:55:00
8:15 PM,71.2,54.5,55,29.85,10.0,Calm,Calm,-,N/A,,Clear,0,2013-09-14 00:15:00
8:35 PM,70.2,55.2,59,29.86,10.0,Calm,Calm,-,N/A,,Clear,0,2013-09-14 00:35:00
8:55 PM,69.6,54.5,59,29.88,10.0,Calm,Calm,-,N/A,,Clear,0,2013-09-14 00:55:00
9:15 PM,68.7,54.0,59,29.89,10.0,Calm,Calm,-,N/A,,Clear,0,2013-09-14 01:15:00
9:35 PM,68.4,54.0,60,29.89,10.0,Calm,Calm,-,N/A,,Scattered Clouds,0,2013-09-14 01:35:00
9:55 PM,67.5,55.0,64,29.90,7.0,Calm,Calm,-,N/A,,Scattered Clouds,0,2013-09-14 01:55:00
10:15 PM,66.9,54.7,65,29.90,10.0,Calm,Calm,-,N/A,,Scattered Clouds,0,2013-09-14 02:15:00
10:35 PM,64.4,56.5,75,29.91,10.0,Calm,Calm,-,N/A,,Clear,0,2013-09-14 02:35:00
10:55 PM,64.8,55.4,72,29.91,10.0,NNW,3.5,-,N/A,,Scattered Clouds,330,2013-09-14 02:55:00
11:15 PM,66.2,54.1,65,29.92,10.0,North,4.6,-,N/A,,Scattered Clouds,350,2013-09-14 03:15:00
11:35 PM,65.3,55.4,70,29.92,10.0,North,4.6,-,N/A,,Scattered Clouds,360,2013-09-14 03:35:00
11:55 PM,64.4,54.5,70,29.92,10.0,North,4.6,-,N/A,,Clear,360,2013-09-14 03:55:00